Location: Oberwesel
(50.1000°N, 7.7333°E)
Time: 12:10:24
(UTC+02:00)

ISS - Pass Details

Date: 21 May 2025
Orbit: 415 x 418 km, 51.6° (Epoch: 19 June)

Event Time Altitude Azimuth Distance (km) Brightness Sun altitude
Rises 23:46:20 0° 285° (WNW) 2,361 0.6 -16.2°
Reaches altitude 10° 23:48:45 10° 268° (W) 1,493 -0.7 -16.3°
Enters shadow 23:51:13 21° 221° (SW) 1,003 -2.1 -16.5°
